Starlink 30856

operational
NORAD ID: 58725 Int'l Des: 2024-002 Owner: SPXS Country: US Constellation: starlink
LEOCIRCULAR

关于 Starlink 30856

正在加载描述...

实时位置

正在加载3D地球...

即将过境

高度历史

Altitude vs Time

uPlot chart will show altitude changes over time

两行轨道根数

1 58725U 24002W 25306.46717681 .00004571 00000-0 16554-3 0 9992
2 58725 53.1585 101.1039 0001255 84.9636 275.1508 15.30365564102537
Epoch: Nov 2, 2025 • Age: 9 hours

当前状态

高度 484.9 km
速度 7.62 km/s
星下点 -31.18°S, 36.24°W
发射日期 Jan 3, 2024
运行时间 1.8 years
类型 internet

技术详情

分类 Payload
质量 730.00 kg
干质量 700.00 kg
总质量 730.00 kg
长度 0.30 m
直径 4.10 m
跨度 29.00 m
形状 Box + pan
制造商 SPXS
平台类型 Starlink V2M
阶段状态 In Orbit
所有者/国家 SPXS/US

大型星座

Loading constellations...